Location: Baia Mare
(47.6567°N, 23.5850°E)
Time: 13:36:13
(UTC+02:00)

ISS - Pass Details

Date: 11 December 2018
Orbit: 401 x 408 km, 51.6° (Epoch: 16 December)

Event Time Altitude Azimuth Distance (km) Brightness Sun altitude
Rises 19:14:26 0° 282° (WNW) 2,316 1.2 -26.0°
Reaches altitude 10° 19:17:28 10° 251° (WSW) 1,452 -0.1 -26.5°
Maximum altitude 19:18:52 12° 226° (SW) 1,319 -0.6 -26.7°
Enters shadow 19:19:37 12° 211° (SSW) 1,355 -0.8 -26.8°
